星链-33761 (STARLINK-33761)

导读 | 豆包AI

STARLINK-33761是美国SpaceX星链星座的卫星,于2025年4月4日发射入轨,属于Starlink Gen2系列。该卫星依托星链低轨星座部署,承担全球宽带互联网接入服务,为偏远地区、移动载体提供高速网络覆盖,进一步扩充了星链星座的规模与服务能力。

基本信息
目录编号:
63455
目录名称:
STARLINK-33761
国际标识:
2025-069Y
轨道中心:
EARTH
卫星名称:
星链-33761
卫星全名:
星链-33761 (STARLINK-33761)
卫星状态:
在轨 (已飞行390 天)
发射日期:
2025-04-04 UTC
国别 :
美国 (US)
星等 :
--
轨道信息
数据来源 国际轨道数据
星历时间: 2026-04-29T22:00:01+0800
6小时前
查看轨道信息
半长轴: 6817.875km
偏心率: 0.0001126
轨道倾角: 53.160°
近地点辐角 89.212°
升交点赤经 265.547°
平近点角 286.095°
近地点: 438.97km
远地点: 440.506km
周期: 93.376分钟
每日圈数: 15.421595
详细信息
固有亮度:
5
最大亮度:
2.5
卫星平台:
Starlink V1.0
覆盖范围:
全球
运营商:
太空探索技术公司
运营商所在国:
美国
制造商(研发单位):
太空探索技术公司
制造商所在国:
美国
使用方式:
暂无
卫星简介
Starlink 计划是 SpaceX 推出的全球卫星互联网项目,通过发射低轨道卫星,为全球尤其是偏远地区提供高速、低延迟的互联网服务。自 2019 年起,Starlink 已部署数千颗卫星,旨在缩小全球数字鸿沟,推动互联网普及。该项目还为军事、航空等行业提供通信支持,带来广泛经济效益。
2D轨道图
3D轨道图
轨道高度分析图
轨道倾角分析图
轨道综合分析图
查看轨道综合分析图